Location: Peterborough
(44.3091°N, 78.3197°W)
Time: 05:21:35
(UTC-04:00)

Vanguard 2 - Pass Details

Date: 25 March 2023
Orbit: 552 x 2926 km, 32.9° (Epoch: 04 June)

Event Time Altitude Azimuth Distance (km) Brightness Sun altitude
Rises 13:16:18 0° 271° (W) 5,308 11.8 47.6°
Reaches altitude 10° 13:22:49 10° 247° (WSW) 3,672 11.4 47.6°
Maximum altitude 13:26:13 13° 225° (SW) 3,120 11.3 47.6°
Drops below altitude 10° 13:29:08 10° 202° (SSW) 3,007 11.5 47.5°
Sets 13:33:17 0° 173° (S) 3,524 11.6 47.5°
